Date String (YYYY-MM-DD hh:mm:ss) UTC,Instrument flags,Ambient pressure (hPa),Sample flow (lpm),Bypass flow (lpm),Sample temperature (°C),Ambient temperature (°C),ASC tube jacket temperature (°C),LED temperature (°C),Box temperature (°C),Sample RH (%),Span deviation,Mass concentration (μg/m³),Mass concentration (μg/m³),Mass concentration (μg/m³)
DateTimeUTC,F1_M11,P_M11,Q1_M11,Q2_M11,T1_M11,T2_M11,T3_M11,T4_M11,T5_M11,U1_M11,ZSPAN_M11,X0_M11,X2_M11,X1_M11
2023-05-28 06:00:00,,0830.6,5.00,0.00,30.2,28.5,00.0,38.5,31.7,24.2,0004.0,0009.32,0004.11,0003.20
2023-05-28 06:01:00,,0830.6,5.00,0.00,30.2,28.5,00.0,38.5,31.7,24.2,0004.4,0009.23,0004.08,0003.20
2023-05-28 06:02:00,,0830.6,5.00,0.00,30.2,28.6,00.0,38.5,31.7,24.3,0004.5,0009.33,0004.12,0003.21
2023-05-28 06:03:00,,0830.6,5.00,0.00,30.2,28.6,00.0,38.5,31.7,24.3,0000.1,0009.59,0004.19,0003.22
2023-05-28 06:04:00,,0830.6,5.00,0.00,30.2,28.6,00.0,38.5,31.7,24.3,0000.3,0010.30,0004.23,0003.24
2023-05-28 06:05:00,,0830.6,5.00,0.00,30.2,28.6,00.0,38.5,31.7,24.2,0000.4,0010.05,0004.20,0003.26
2023-05-28 06:06:00,,0830.5,5.00,0.00,30.2,28.6,00.0,38.5,31.7,24.2,0000.0,0010.13,0004.26,0003.27
2023-05-28 06:07:00,,0830.5,5.00,0.00,30.2,28.6,00.0,38.5,31.7,24.2,0000.0,0010.15,0004.29,0003.29
2023-05-28 06:08:00,,0830.6,4.99,0.00,30.2,28.6,00.0,38.5,31.7,24.1,0000.0,0010.09,0004.30,0003.30
2023-05-28 06:09:00,,0830.5,5.00,0.00,30.2,28.6,00.0,38.5,31.7,24.0,0000.0,0010.09,0004.31,0003.29
2023-05-28 06:10:00,,0830.6,4.99,0.00,30.2,28.6,00.0,38.5,31.7,23.9,0000.0,0010.20,0004.36,0003.30
2023-05-28 06:11:00,,0830.5,5.01,0.00,30.2,28.6,00.0,38.5,31.7,23.9,0000.0,0010.25,0004.33,0003.29
2023-05-28 06:12:00,,0830.5,5.01,0.00,30.2,28.6,00.0,38.5,31.7,23.9,0000.0,0011.57,0004.33,0003.28
2023-05-28 06:13:00,,0830.4,5.00,0.00,30.2,28.6,00.0,38.5,31.7,23.9,0000.0,0012.10,0004.33,0003.26
2023-05-28 06:14:00,,0830.4,5.00,0.00,30.2,28.6,00.0,38.5,31.7,23.8,0000.0,0013.17,0004.31,0003.27
2023-05-28 06:15:00,,0830.6,5.00,0.00,30.2,28.6,00.0,38.5,31.7,23.8,0000.0,0013.00,0004.33,0003.25
2023-05-28 06:16:00,,0830.4,4.99,0.00,30.2,28.6,00.0,38.5,31.7,23.7,0000.0,0013.03,0004.31,0003.23
2023-05-28 06:17:00,,0830.5,5.00,0.00,30.2,28.6,00.0,38.5,31.7,23.7,0000.0,0013.63,0004.27,0003.21
2023-05-28 06:18:00,,0830.4,5.01,0.00,30.2,28.6,00.0,38.5,31.7,23.6,0000.0,0014.26,0004.26,0003.18
2023-05-28 06:19:00,,0830.5,5.00,0.00,30.2,28.6,00.0,38.5,31.7,23.5,0000.0,0014.54,0004.26,0003.16
2023-05-28 06:20:00,,0830.4,4.99,0.00,30.2,28.6,00.0,38.5,31.7,23.5,0000.0,0015.11,0004.24,0003.15
2023-05-28 06:21:00,,0830.4,4.99,0.00,30.2,28.6,00.0,38.6,31.7,23.5,0000.0,0015.02,0004.18,0003.12
2023-05-28 06:22:00,,0830.4,5.00,0.00,30.2,28.6,00.0,38.6,31.7,23.5,0000.0,0014.32,0004.18,0003.11
2023-05-28 06:23:00,,0830.4,5.01,0.00,30.2,28.6,00.0,38.6,31.7,23.4,0000.0,0012.88,0004.15,0003.11
2023-05-28 06:24:00,,0830.4,5.01,0.00,30.2,28.6,00.0,38.6,31.7,23.5,0000.0,0012.30,0004.11,0003.10
2023-05-28 06:25:00,,0830.3,5.01,0.00,30.2,28.6,00.0,38.6,31.8,23.5,0000.0,0011.00,0004.05,0003.09
2023-05-28 06:26:00,,0830.3,5.00,0.00,30.2,28.6,00.0,38.6,31.7,23.5,0000.0,0010.56,0003.98,0003.08
2023-05-28 06:27:00,,0830.3,4.99,0.00,30.2,28.6,00.0,38.6,31.7,23.5,0000.0,0010.34,0003.96,0003.06
2023-05-28 06:28:00,,0830.3,4.99,0.00,30.2,28.6,00.0,38.6,31.7,23.4,0000.0,0009.65,0003.93,0003.05
2023-05-28 06:29:00,,0830.3,5.00,0.00,30.2,28.6,00.0,38.6,31.7,23.2,0000.0,0009.07,0003.88,0003.04
2023-05-28 06:30:00,,0830.2,5.01,0.00,30.2,28.6,00.0,38.6,31.7,23.2,0000.0,0008.68,0003.89,0003.02
2023-05-28 06:31:00,,0830.2,5.01,0.00,30.2,28.6,00.0,38.6,31.7,23.2,0000.0,0007.90,0003.87,0003.02
2023-05-28 06:32:00,,0830.2,5.00,0.00,30.2,28.6,00.0,38.6,31.7,23.2,0000.0,0007.83,0003.88,0003.04
2023-05-28 06:33:00,,0830.2,5.00,0.00,30.2,28.6,00.0,38.6,31.7,23.1,0000.0,0007.90,0003.88,0003.04
2023-05-28 06:34:00,,0830.2,4.99,0.00,30.2,28.5,00.0,38.6,31.7,23.0,0000.0,0008.32,0003.86,0003.02
2023-05-28 06:35:00,,0830.2,5.00,0.00,30.2,28.5,00.0,38.6,31.7,22.9,0000.0,0008.67,0003.83,0003.00
2023-05-28 06:36:00,,0830.2,4.99,0.00,30.2,28.5,00.0,38.6,31.7,22.9,0000.0,0008.64,0003.84,0002.98
2023-05-28 06:37:00,,0830.2,5.00,0.00,30.2,28.5,00.0,38.6,31.7,22.9,0000.0,0008.66,0003.84,0002.96
2023-05-28 06:38:00,,0830.2,4.99,0.00,30.2,28.5,00.0,38.6,31.7,22.9,0000.0,0008.73,0003.85,0002.94
2023-05-28 06:39:00,,0830.2,5.00,0.00,30.2,28.5,00.0,38.6,31.7,22.9,0000.0,0008.77,0003.86,0002.93
2023-05-28 06:40:00,,0830.3,5.00,0.00,30.2,28.5,00.0,38.6,31.7,22.8,0000.0,0008.99,0003.89,0002.90
2023-05-28 06:41:00,,0830.2,5.00,0.00,30.2,28.5,00.0,38.6,31.7,22.9,0000.0,0009.01,0003.88,0002.89
2023-05-28 06:42:00,,0830.3,5.01,0.00,30.2,28.5,00.0,38.6,31.7,22.8,0000.0,0009.03,0003.88,0002.88
2023-05-28 06:43:00,,0830.3,5.00,0.00,30.2,28.5,00.0,38.6,31.7,22.8,0000.0,0009.11,0003.89,0002.85
2023-05-28 06:44:00,,0830.2,4.98,0.00,30.1,28.5,00.0,38.5,31.7,22.8,0000.0,0009.01,0003.85,0002.81
2023-05-28 06:45:00,,0830.3,5.00,0.00,30.1,28.5,00.0,38.5,31.7,22.8,0000.0,0008.83,0003.86,0002.81
2023-05-28 06:46:00,,0830.2,5.01,0.00,30.1,28.5,00.0,38.5,31.7,22.7,0000.0,0008.19,0003.88,0002.80
2023-05-28 06:47:00,,0830.2,5.01,0.00,30.1,28.5,00.0,38.5,31.7,22.7,0000.0,0008.22,0003.86,0002.78
2023-05-28 06:48:00,,0830.2,4.99,0.00,30.1,28.5,00.0,38.5,31.7,22.8,0000.0,0008.43,0003.84,0002.76
2023-05-28 06:49:00,,0830.2,5.00,0.00,30.1,28.5,00.0,38.5,31.7,22.7,0000.0,0008.40,0003.84,0002.74
2023-05-28 06:50:00,,0830.2,4.99,0.00,30.1,28.4,00.0,38.5,31.7,22.7,0000.0,0008.35,0003.82,0002.73
2023-05-28 06:51:00,,0830.2,5.01,0.00,30.1,28.4,00.0,38.5,31.7,22.7,0000.0,0008.20,0003.82,0002.74
2023-05-28 06:52:00,,0830.1,5.00,0.00,30.1,28.4,00.0,38.5,31.7,22.7,0000.0,0008.09,0003.79,0002.76
2023-05-28 06:53:00,,0830.1,5.00,0.00,30.1,28.4,00.0,38.5,31.6,22.7,0000.0,0008.15,0003.79,0002.76
2023-05-28 06:54:00,,0830.2,4.99,0.00,30.1,28.4,00.0,38.5,31.6,22.7,0000.0,0007.99,0003.76,0002.76
2023-05-28 06:55:00,,0830.1,5.00,0.00,30.1,28.4,00.0,38.5,31.6,22.7,0000.0,0007.95,0003.78,0002.77
2023-05-28 06:56:00,,0830.1,5.00,0.00,30.1,28.4,00.0,38.5,31.7,22.6,0000.0,0008.09,0003.81,0002.77
2023-05-28 06:57:00,,0830.1,5.01,0.00,30.1,28.4,00.0,38.5,31.7,22.6,0000.0,0008.08,0003.79,0002.78
2023-05-28 06:58:00,,0830.2,5.00,0.00,30.1,28.4,00.0,38.5,31.7,22.6,0000.0,0008.01,0003.79,0002.80
2023-05-28 06:59:00,,0830.1,5.01,0.00,30.1,28.4,00.0,38.5,31.7,22.5,0000.0,0007.75,0003.83,0002.80
